Date,TemperatureHighF,TemperatureAvgF,TemperatureLowF,DewpointHighF,DewpointAvgF,DewpointLowF,HumidityHigh,HumidityAvg,HumidityLow,PressureMaxIn,PressureMinIn,WindSpeedMaxMPH,WindSpeedAvgMPH,GustSpeedMaxMPH,PrecipitationSumIn
2013-4-26,59.7,54.0,42.2,38.7,35.5,29.9,80,51,35,30.47,30.35,14,2,14,0.00
2013-4-27,68.9,52.7,32.6,44.5,35.6,29.0,98,59,24,30.38,30.11,11,1,13,0.00
2013-4-28,53.9,52.1,47.9,53.2,46.1,32.4,98,82,47,30.11,29.83,8,1,9,0.28
2013-4-29,70.9,60.5,50.7,56.0,53.3,50.1,99,79,52,29.94,29.83,7,1,9,0.04
2013-4-30,73.1,62.6,52.6,57.5,54.2,51.1,95,75,55,30.06,29.92,14,2,17,0.00
2013-5-1,81.4,66.3,47.1,59.2,53.3,46.6,98,68,37,30.22,30.05,13,2,15,0.00
2013-5-2,78.5,66.7,52.2,57.0,50.0,43.3,91,57,36,30.23,30.12,15,2,17,0.00
2013-5-3,75.8,66.8,54.1,57.3,45.1,31.3,69,48,21,30.12,30.03,15,2,18,0.00
2013-5-4,72.0,63.2,56.1,48.0,41.1,32.5,72,47,26,30.10,30.03,17,3,17,0.00
2013-5-5,72.4,61.9,51.5,45.3,38.2,30.9,66,44,22,30.09,30.00,15,2,15,0.00
2013-5-6,74.2,61.2,42.7,49.7,42.6,37.5,86,53,36,30.05,29.96,12,2,12,0.00
2013-5-7,75.1,63.6,48.0,54.2,48.3,40.1,93,59,40,30.05,29.97,13,2,16,0.00
2013-5-8,80.3,64.2,49.1,58.7,50.6,45.6,96,66,32,30.01,29.91,9,1,11,0.01
2013-5-9,81.3,67.2,48.7,59.3,50.6,45.0,98,61,28,29.96,29.87,8,1,8,0.00
2013-5-10,71.6,60.7,43.9,61.9,55.6,39.7,97,84,64,29.91,29.73,10,1,12,0.26
2013-5-11,62.7,49.7,35.1,48.2,41.8,32.3,93,75,51,29.91,29.74,19,2,19,0.02
2013-5-12,49.2,40.2,30.2,33.6,29.4,24.6,95,67,43,30.11,29.89,17,2,17,0.00
2013-5-13,55.9,41.0,25.3,33.4,25.7,19.5,97,60,24,30.19,30.11,9,1,11,0.00
2013-5-14,79.5,61.8,41.9,54.7,42.5,29.3,72,50,35,30.13,29.71,14,2,14,0.00
2013-5-15,83.5,72.6,53.9,60.3,49.5,40.8,95,48,26,29.77,29.58,15,2,19,0.00
2013-5-16,83.6,69.1,47.6,51.9,45.1,37.2,89,46,23,30.00,29.76,13,1,13,0.00
2013-5-17,74.0,62.8,49.6,48.3,41.9,35.3,71,48,30,30.13,30.00,11,2,11,0.00
2013-5-18,80.8,67.2,52.9,52.8,46.3,36.1,72,48,27,30.14,30.02,11,2,12,0.00
2013-5-19,87.0,70.3,50.8,64.2,56.3,44.6,89,63,41,30.03,29.87,7,1,10,0.00
2013-5-20,90.8,75.3,58.3,70.5,63.1,57.4,98,70,39,29.91,29.75,14,1,19,0.00
2013-5-21,86.5,75.6,65.1,68.8,63.4,58.3,96,68,41,29.80,29.68,12,1,13,0.10
2013-5-22,81.9,68.6,60.2,66.5,62.8,58.8,97,83,47,29.72,29.60,13,2,16,0.09
2013-5-23,65.3,53.8,42.5,60.4,51.7,40.5,98,93,79,30.15,29.68,12,1,15,0.12
2013-5-24,56.1,46.8,37.7,42.1,37.4,33.5,98,72,46,30.36,30.15,12,1,16,0.00
2013-5-25,66.0,51.8,32.8,43.2,36.3,31.4,98,61,32,30.42,30.28,11,1,11,0.00
2013-5-26,70.1,56.3,33.3,47.6,35.6,30.3,98,53,25,30.35,30.21,6,1,8,0.00
2013-5-27,59.1,50.2,41.2,50.5,43.7,34.9,97,79,51,30.27,30.01,9,1,10,0.74
2013-5-28,78.4,63.5,51.0,70.9,60.7,50.1,98,91,73,30.01,29.79,10,1,13,0.15
2013-5-29,84.1,76.2,65.2,69.4,65.0,61.5,96,70,47,29.97,29.76,13,1,17,0.00
2013-5-30,88.2,73.7,61.4,72.7,66.2,60.8,98,79,50,30.04,29.93,19,1,19,0.30
2013-5-31,81.3,72.3,66.5,71.2,67.4,65.1,98,85,65,29.98,29.83,12,1,14,0.02
2013-6-1,79.3,70.3,63.0,69.2,64.4,61.8,97,83,61,29.84,29.67,12,1,13,0.22
2013-6-2,72.6,64.9,53.6,65.3,57.5,44.9,96,77,62,29.96,29.64,12,1,14,0.00
2013-6-3,67.9,55.0,38.5,46.0,41.4,35.3,97,63,32,30.08,29.96,7,1,8,0.00
2013-6-4,73.1,60.9,42.9,50.2,44.3,32.8,98,58,35,30.19,30.08,8,1,9,0.00
2013-6-5,57.0,12.5,0.0,53.8,2.9,-29.0,100,68,23,30.17,29.98,10,1,11,0.01
2013-6-6,0.0,0.0,0.0,0.0,-0.7,-4.7,100,97,80,29.99,29.84,12,1,12,0.00
2013-6-7,0.0,0.0,0.0,0.0,0.0,0.0,100,100,100,29.91,29.86,8,0,11,0.00
2013-6-8,0.0,-6.1,-41.0,0.0,-7.0,-41.0,100,96,69,30.07,29.90,6,0,6,0.00
2013-6-9,0.0,-19.1,-41.0,0.0,-19.8,-41.0,100,97,76,30.11,29.94,13,2,15,0.00
2013-6-10,0.0,-3.2,-41.0,0.0,-3.2,-41.0,100,99,1,29.96,29.73,5,0,5,1.66
2013-6-11,0.0,-34.0,-41.0,0.0,-34.0,-41.0,100,61,1,29.89,29.76,6,0,6,0.01
2013-6-12,-41.0,-41.0,-41.0,-41.0,-41.0,-41.0,100,100,100,30.01,29.66,8,1,8,0.09
2013-6-13,0.0,-40.7,-41.0,-0.4,-41.7,-59.5,100,96,32,30.14,29.50,13,1,13,1.42
2013-6-14,-41.0,-41.0,-41.0,-41.0,-44.1,-59.5,100,88,24,30.29,30.14,9,1,9,0.00
2013-6-15,0.0,-38.6,-41.0,0.0,-39.0,-58.1,100,99,35,30.28,30.23,5,0,5,0.00
2013-6-17,87.8,76.3,66.4,64.5,59.2,47.6,77,57,36,30.05,29.87,13,1,13,0.02
2013-6-18,72.2,64.3,52.8,60.0,52.8,42.2,96,68,40,30.07,29.65,6,0,6,0.00
2013-6-19,76.4,61.3,43.6,53.6,47.7,40.0,95,63,37,30.16,30.06,4,0,4,0.00
2013-6-20,82.3,67.4,48.5,57.5,52.7,47.8,98,64,35,30.22,30.15,4,0,4,0.00
2013-6-21,86.9,72.7,55.4,66.5,59.3,54.5,98,67,38,30.21,30.06,4,0,4,0.00
2013-6-22,88.4,75.2,66.2,75.2,66.3,56.9,91,74,61,30.11,29.99,4,0,4,0.00
2013-6-23,89.0,78.4,66.3,72.3,67.7,64.2,97,72,48,30.08,29.98,7,0,7,0.00
2013-6-24,88.4,77.8,65.9,72.6,67.8,62.9,92,72,50,30.08,29.93,6,0,6,0.00
2013-6-25,84.5,73.7,66.1,75.6,68.6,63.3,96,85,65,30.02,29.82,7,0,7,0.70
2013-6-26,83.0,73.0,65.0,72.7,68.1,64.4,99,86,61,29.93,29.75,5,0,5,0.34
2013-6-27,83.3,70.9,63.7,72.9,68.1,61.5,99,92,68,29.78,29.64,11,0,11,2.90
2013-6-28,76.8,66.0,60.7,71.4,64.2,60.4,100,94,66,29.66,29.52,6,0,6,0.74
2013-6-29,72.0,65.0,59.0,67.2,63.0,58.4,100,94,76,29.74,29.55,4,0,4,0.37
2013-6-30,77.7,67.5,58.1,63.7,58.9,54.4,99,77,47,29.95,29.74,7,1,7,0.00
2013-7-1,66.5,61.4,57.9,61.9,56.0,47.8,95,83,60,30.07,29.94,5,0,5,0.28
2013-7-2,73.1,65.3,58.0,64.1,60.1,56.1,98,84,70,30.08,30.01,5,0,5,0.02
2013-7-3,82.5,70.6,60.0,69.6,64.5,58.5,97,82,56,30.11,30.04,4,0,4,0.00
2013-7-4,80.7,73.1,65.2,68.7,66.1,62.1,99,80,59,30.15,30.08,4,0,4,0.00
2013-7-5,81.8,74.0,68.2,70.6,67.6,61.9,98,82,54,30.12,30.06,4,0,4,0.02
2013-7-6,83.4,74.0,66.0,72.6,69.2,65.4,99,86,64,30.13,30.00,4,0,4,0.10
2013-7-7,83.0,73.5,67.9,72.1,69.1,65.7,99,87,62,30.05,29.98,4,0,4,0.04
2013-7-8,83.3,73.3,66.0,77.1,70.1,65.4,99,90,75,30.06,29.97,5,0,5,0.13
2013-7-9,89.8,77.3,70.2,77.2,72.2,69.6,99,86,60,30.00,29.89,4,0,4,0.16
2013-7-10,87.2,75.7,63.6,80.0,70.9,58.1,99,86,54,29.95,29.78,9,0,9,0.17
2013-7-11,79.0,68.6,57.1,60.7,57.3,53.4,98,70,44,30.07,29.95,5,0,5,0.00
2013-7-12,81.3,68.0,52.0,63.2,58.5,51.4,99,75,43,30.16,30.07,5,0,5,0.00
2013-7-13,83.6,72.0,58.0,66.9,62.4,57.3,99,75,47,30.23,30.14,6,0,6,0.00
2013-7-14,88.3,76.5,63.0,73.1,68.2,62.2,99,78,55,30.27,30.22,3,0,3,0.00
2013-7-15,92.8,79.6,68.5,78.8,73.4,67.8,99,83,57,30.31,30.23,3,0,3,1.80
2013-7-16,86.4,76.6,74.1,75.7,74.2,72.9,98,93,67,30.30,30.26,1,0,1,0.00
2013-7-17,93.9,81.9,70.8,80.8,74.9,70.1,99,81,58,30.30,30.17,5,0,5,0.00
2013-7-18,93.3,82.7,70.6,79.3,74.4,67.7,99,78,50,30.19,29.98,6,0,6,0.00
2013-7-19,93.0,83.6,74.4,77.9,74.0,70.4,94,74,52,29.99,29.74,7,0,7,0.00
2013-7-20,86.0,76.1,65.9,74.8,67.0,59.5,99,76,44,29.93,29.73,7,0,7,0.43
2013-7-21,83.0,72.3,62.9,67.6,61.8,55.2,97,71,52,30.01,29.92,4,0,4,0.00
2013-7-22,83.0,74.6,67.0,70.0,67.6,65.3,97,80,57,29.91,29.77,3,0,3,0.02
2013-7-23,85.7,70.7,58.7,73.5,65.6,52.2,98,85,59,29.88,29.67,8,0,8,0.19
2013-7-24,72.3,63.4,55.1,56.3,52.3,49.7,92,68,48,30.05,29.88,5,0,5,0.00
2013-7-25,76.8,64.0,47.7,58.4,53.5,47.4,99,72,42,30.12,30.05,4,0,4,0.00
2013-7-26,79.7,67.4,52.6,62.2,58.2,52.0,99,74,50,30.11,29.91,4,0,4,0.01
2013-7-27,75.2,66.7,63.5,68.7,64.1,61.0,97,92,72,29.93,29.73,5,0,5,0.26
2013-7-28,66.5,60.2,50.9,56.3,53.3,50.1,98,79,61,29.99,29.87,6,0,6,0.00
2013-7-29,71.2,60.5,53.1,59.9,54.7,51.5,97,82,56,30.19,29.98,4,0,4,0.00
2013-7-30,78.8,65.5,49.0,62.4,57.1,48.5,99,77,49,30.24,30.13,3,0,3,0.00
2013-7-31,77.0,68.6,62.1,68.0,64.7,60.4,98,88,68,30.14,29.89,4,0,6,0.14
2013-8-1,80.1,67.6,56.5,67.1,61.8,54.8,98,84,45,29.93,29.87,8,0,8,0.07
2013-8-2,74.0,63.7,52.1,66.4,59.7,51.7,99,88,65,29.94,29.85,5,0,5,0.00
2013-8-3,79.0,68.7,55.8,63.9,58.6,52.7,99,73,43,30.06,29.90,4,0,4,0.00
2013-8-4,73.8,63.9,52.4,58.5,54.7,51.6,98,74,48,30.16,30.06,5,0,5,0.00
2013-8-5,72.0,67.3,50.7,60.0,56.6,49.5,97,69,55,30.12,29.99,3,0,3,0.00
2013-8-6,78.6,70.6,62.6,70.6,65.2,60.8,94,83,67,29.97,29.90,5,0,5,0.06
2013-8-7,84.7,71.4,63.9,73.9,67.9,63.3,99,90,64,29.94,29.83,5,0,5,0.16
2013-8-8,76.8,69.5,64.3,70.3,64.6,60.7,98,85,65,30.02,29.90,5,0,5,0.00
2013-8-9,80.1,63.8,58.6,61.7,59.3,57.2,96,87,48,29.99,29.95,3,0,3,0.00
2013-8-10,76.5,70.4,60.9,64.2,60.5,57.1,94,72,52,30.14,30.08,4,0,4,0.00
2013-8-11,79.8,68.2,53.7,64.1,58.9,53.2,99,75,46,30.13,30.04,3,0,3,0.00
2013-8-12,73.7,66.1,62.6,69.2,63.5,58.8,98,92,77,30.07,29.85,3,0,3,2.31
2013-8-13,68.2,61.5,52.6,58.1,51.4,45.9,98,71,51,30.06,29.89,6,1,6,0.01
2013-8-14,68.3,53.8,48.6,54.0,47.1,45.4,90,79,52,30.17,30.06,4,0,4,0.00
2013-8-15,75.0,66.0,54.8,56.5,54.0,50.8,95,68,45,30.13,30.09,4,0,5,0.00
2013-8-16,78.0,64.1,50.5,60.3,54.7,50.2,99,75,45,30.21,30.12,3,0,3,0.00
2013-8-17,78.5,61.9,50.0,60.7,54.8,49.6,99,81,46,30.27,30.21,4,0,4,0.00
2013-8-18,81.7,71.8,55.7,66.2,60.4,55.4,99,70,46,30.22,30.12,2,0,3,0.00
2013-8-19,75.5,58.7,53.9,65.3,57.2,53.5,99,95,68,30.13,30.10,2,0,2,0.00
2013-8-20,85.7,76.7,58.1,71.1,66.4,57.8,99,72,49,30.16,30.09,4,0,4,0.00
2013-8-21,85.4,73.9,62.4,73.4,67.1,61.7,99,81,57,30.15,30.00,4,0,4,0.00
2013-8-22,82.3,73.9,68.0,71.3,67.8,65.1,95,82,62,30.05,29.96,4,0,4,0.00
2013-8-23,80.8,70.4,56.6,67.2,57.0,45.8,98,67,31,30.21,30.04,5,0,5,0.00
2013-8-24,81.0,67.5,53.0,67.0,58.3,52.5,99,75,46,30.32,30.21,4,0,4,0.00
2013-8-25,86.8,70.8,53.6,67.5,61.6,53.2,99,76,46,30.31,30.16,7,0,7,0.00
2013-8-26,87.3,75.1,60.7,74.2,67.6,59.8,98,79,59,30.18,29.99,5,0,5,0.00
2013-8-27,84.5,75.2,70.2,78.2,72.5,69.0,98,92,78,30.02,29.88,5,0,5,0.62
2013-8-28,83.2,76.5,68.1,76.2,72.7,67.2,99,89,75,30.01,29.82,6,0,6,0.14
2013-8-29,89.0,74.4,63.6,73.9,68.6,63.2,100,84,55,30.08,30.00,5,0,5,0.00
2013-8-30,87.1,75.1,61.8,74.2,68.5,61.4,99,82,56,30.02,29.75,9,0,9,0.59
2013-8-31,81.3,73.7,68.6,72.6,69.5,66.0,99,87,69,29.85,29.74,3,0,4,0.00
2013-9-1,83.5,72.9,67.1,75.6,68.7,65.3,96,87,68,29.86,29.73,4,0,4,0.02
2013-9-2,77.6,69.3,60.3,69.6,62.1,51.8,99,79,55,29.92,29.73,6,0,6,0.00
2013-9-3,74.8,63.2,55.7,58.7,54.2,50.5,96,74,50,30.03,29.92,4,0,4,0.00
2013-9-4,80.5,66.4,49.5,64.7,58.0,49.2,99,77,50,30.09,30.02,4,0,4,0.00
2013-9-5,71.0,61.8,52.7,61.5,52.1,44.8,96,73,42,30.26,30.08,5,0,5,0.00
2013-9-6,76.3,60.3,42.9,55.6,48.9,37.1,99,71,33,30.28,30.08,3,0,3,0.00
2013-9-7,83.5,67.0,53.3,71.0,61.3,49.5,97,83,57,30.08,29.90,4,0,4,0.00
2013-9-8,74.0,68.4,58.7,66.8,59.8,50.1,93,75,52,30.09,29.92,7,1,7,0.00
2013-9-9,77.7,63.8,50.4,71.7,60.9,48.9,98,91,75,30.07,29.91,4,0,4,0.00
2013-9-10,93.3,79.2,67.3,76.6,70.6,66.4,99,78,44,30.02,29.90,6,0,6,0.00
2013-9-11,92.5,77.5,66.7,76.2,69.6,65.3,97,78,51,30.05,29.91,8,0,8,0.00
2013-9-12,79.2,68.5,55.1,67.2,59.0,48.6,99,74,45,29.96,29.84,10,0,10,0.00
2013-9-13,61.4,53.2,40.0,50.3,45.3,39.3,98,75,55,30.13,29.96,6,0,6,0.00
2013-9-14,69.8,51.3,35.2,49.9,41.0,35.0,99,74,33,30.18,30.08,3,0,3,0.00
2013-9-15,65.3,53.4,42.5,56.2,50.0,42.1,99,89,60,30.12,30.04,3,0,3,0.07
2013-9-16,63.2,54.9,46.4,54.2,49.9,42.3,99,85,55,30.36,30.11,4,0,4,0.01
2013-9-17,67.3,51.3,35.0,53.0,43.3,34.7,99,77,35,30.39,30.21,6,0,6,0.00
2013-9-18,74.8,59.2,43.7,58.4,51.9,43.2,99,80,48,30.22,30.04,2,0,3,0.00
2013-9-19,81.0,66.4,54.5,69.4,62.8,54.2,99,89,65,30.05,29.92,4,0,4,0.00
2013-9-20,81.6,71.0,64.4,73.8,68.4,63.1,98,92,69,29.93,29.74,6,0,6,1.12
2013-9-21,69.7,62.0,55.2,64.3,55.5,46.5,99,81,48,29.87,29.68,6,0,6,0.03
2013-9-22,59.7,52.2,43.0,46.9,43.4,40.5,96,73,55,30.07,29.86,6,0,6,0.00
2013-9-23,63.2,48.9,38.6,47.6,43.0,38.1,99,82,51,30.18,30.07,4,0,4,0.00
2013-9-24,66.9,52.7,39.0,53.4,46.7,38.6,99,83,55,30.14,29.99,4,0,4,0.00
2013-9-25,70.2,54.5,42.3,56.5,49.3,42.0,99,85,53,30.00,29.94,5,0,5,0.00
2013-9-26,75.1,57.4,42.5,55.8,48.0,42.1,99,76,38,30.14,29.99,5,0,5,0.00
2013-9-27,74.8,58.1,42.9,60.3,52.1,42.6,99,83,49,30.23,30.14,7,0,7,0.00
2013-9-28,76.7,62.3,48.2,61.7,55.3,47.9,99,81,46,30.20,30.01,5,0,5,0.00
2013-9-29,63.7,59.3,55.1,62.2,57.4,52.9,99,94,85,30.03,29.95,1,0,2,0.15
2013-9-30,72.0,60.7,50.9,59.6,56.1,50.4,99,87,55,30.01,29.92,4,0,4,0.00
2013-10-1,68.5,57.5,47.3,63.5,56.0,46.9,100,95,82,30.02,29.94,5,0,5,0.01
2013-10-2,80.8,64.5,52.4,62.9,54.5,47.0,100,76,32,30.08,29.95,3,0,3,0.00
2013-10-3,76.4,64.3,51.9,68.9,60.9,51.2,99,89,75,30.06,29.93,4,0,4,0.00
2013-10-4,79.8,69.5,63.2,68.7,65.3,62.6,99,87,63,30.03,29.94,3,0,3,0.02
2013-10-5,74.2,68.0,63.1,69.4,66.1,62.3,99,94,82,30.04,29.86,3,0,3,0.14
2013-10-6,69.4,64.6,54.7,67.8,63.4,54.2,99,96,87,29.86,29.62,8,0,8,0.31
2013-10-7,59.4,50.0,41.1,54.7,46.5,40.8,99,88,69,30.11,29.68,6,0,6,0.00
2013-10-8,67.5,51.5,36.6,54.5,43.0,36.6,100,77,40,30.28,30.11,4,0,4,0.00
2013-10-9,69.2,52.2,38.5,55.1,44.9,38.2,100,80,42,30.31,30.21,6,0,6,0.00
2013-10-10,71.3,53.4,40.1,54.0,44.6,39.6,100,77,34,30.22,30.12,4,0,4,0.00
2013-10-11,40.8,38.6,36.7,40.3,38.2,36.5,99,99,97,30.14,30.09,0,0,0,0.00